(109) Felicitas
ephemeris date magn radius delta ra dec elong phase
Today3 Jul 202513.62.153 AU3.113 AU07h56m+25°30'15.8°7.4°
Opposition27 Mar 202612.92.984 AU1.986 AU12h24m-03°33'179.0°0.3°
(109) Felicitas - 2025-07-03
astro.vanbuitenen.nl


 
-1 year
-1 month
-1 day
Now
+1 day
+1 month
+1 year

The interactive orbit chart above shows the body's path through the solar system and its position at the given date. Green and blue lines are shown perpendicular to the ecliptic plane: Green if the path is above the ecliptic plane, blue if it is below. (Left-click and drag to rotate the view; Right-click and drag to move the view; Use scroll wheel to zoom in our out.)

The orbital elements of Felicitas are:

            e (Eccentricity)                : 0.3006129
            a (Semimajor axis)              : 2.6939165
            i (Inclination)                 : 7.84479
            Ω (Longitude of ascending node) : 2.72993
            ω (Argument of perihelion)      : 57.63492
            M (Mean anomaly)                : 22.12585
            Epoch                           : 2025 May 05

            L (Longitude of perihelion)     : 60.12077
            B (Latitude of perihelion)      : 6.62017
            P (Orbital period in years)     : 4.42            
        

The light curve chart below shows the estimated development of the minor planet's magnitude.


The all-sky chart below shows the path of the minor planet over the same period as the light curve. The current position is marked yellow.





The following chart shows the path of the minor planet in the next few days. The field of view is optimized for (~10x50) binoculars and finderscopes. A more printer-friendly version of the same chart can be found below.




Ephemerides:
Date       Time       RA (2000)    DEC (2000)    delta   radius  elong  phase   PA    magn
2025-07-03 00:00 UT   07 56 19.8   +25 30 58     3.113    2.153   15.8    7.4    84   13.6 
2025-07-03 06:30 UT   07 56 57.4   +25 28 59     3.115    2.154   15.7    7.3    84   13.6 
2025-07-04 00:00 UT   07 58 38.3   +25 23 37     3.119    2.156   15.4    7.2    84   13.6 
2025-07-05 00:00 UT   08 00 56.3   +25 16 10     3.125    2.159   15.0    7.0    84   13.6 
2025-07-06 00:00 UT   08 03 13.9   +25 08 36     3.130    2.162   14.6    6.8    84   13.6 
2025-07-07 00:00 UT   08 05 30.9   +25 00 58     3.136    2.165   14.2    6.6    83   13.6 
2025-07-08 00:00 UT   08 07 47.5   +24 53 13     3.141    2.168   13.8    6.4    83   13.6 
2025-07-09 00:00 UT   08 10 03.7   +24 45 23     3.147    2.171   13.4    6.2    83   13.6 
2025-07-10 00:00 UT   08 12 19.3   +24 37 27     3.152    2.174   13.0    6.0    82   13.6 
2025-07-11 00:00 UT   08 14 34.5   +24 29 26     3.157    2.177   12.6    5.8    82   13.6 
2025-07-12 00:00 UT   08 16 49.2   +24 21 19     3.163    2.180   12.2    5.7    82   13.6 
2025-07-13 00:00 UT   08 19 03.4   +24 13 07     3.168    2.183   11.8    5.5    81   13.6 
2025-07-14 00:00 UT   08 21 17.2   +24 04 50     3.173    2.186   11.4    5.3    80   13.6 
2025-07-15 00:00 UT   08 23 30.5   +23 56 28     3.178    2.189   11.0    5.1    80   13.6 
2025-07-16 00:00 UT   08 25 43.3   +23 48 01     3.183    2.192   10.6    4.9    79   13.6 
2025-07-17 00:00 UT   08 27 55.7   +23 39 29     3.188    2.195   10.2    4.7    78   13.6 
2025-07-18 00:00 UT   08 30 07.5   +23 30 52     3.192    2.198    9.8    4.5    78   13.6 
2025-07-19 00:00 UT   08 32 19.0   +23 22 10     3.197    2.201    9.4    4.3    77   13.6 


    Terminology:
            
    delta:  distance between minor planet and earth in AU
    radius: distance between minor planet and sun in AU
    magn:   magnitude (brightness) estimate    
    ra:     right ascension in hours (24h = 360deg)
    dec:    declination in degrees
    elong:  elongation in degrees (angle sun-earth-minor planet)    
    phase:  phase angle in degrees (angle sun-minor planet-earth)        
    AU:     Astronomical Unit (mean distance between earth and sun: 149597870.7 km
    

Orbital elements provided by the MPC (Minor Planet Center).
Calculations by a modified version of AAPlus, a C# implementation of the AA+ project by PJ Naughter from the algorithms presented in the book "Astronomical Algorithms" by Jean Meeus.
NGC2000 dso catalog and star labels from VizieR as provided by the Strasbourg astronomical Data Center.
Tycho2 catalog from the ESO archive.